Year,Month,Day,Hour,Minute,Value (Times are PST for temperature in C)
2019,03,03,00,00,2.70
2019,03,03,00,01,2.70
2019,03,03,00,02,2.70
2019,03,03,00,03,2.70
2019,03,03,00,04,2.70
2019,03,03,00,05,2.70
2019,03,03,00,06,2.70
2019,03,03,00,07,2.70
2019,03,03,00,08,2.70
2019,03,03,00,09,2.70
2019,03,03,00,10,2.70
2019,03,03,00,11,2.70
2019,03,03,00,12,2.70
2019,03,03,00,13,2.60
2019,03,03,00,14,2.60
2019,03,03,00,15,2.60
2019,03,03,00,16,2.60
2019,03,03,00,17,2.60
2019,03,03,00,18,2.60
2019,03,03,00,19,2.60
2019,03,03,00,20,2.60
2019,03,03,00,21,2.60
2019,03,03,00,22,2.60
2019,03,03,00,23,2.60
2019,03,03,00,24,2.60
2019,03,03,00,25,2.60
2019,03,03,00,26,2.60
2019,03,03,00,27,2.60
2019,03,03,00,28,2.60
2019,03,03,00,29,2.60
2019,03,03,00,30,2.60
2019,03,03,00,31,2.60
2019,03,03,00,32,2.60
2019,03,03,00,33,2.60
2019,03,03,00,34,2.60
2019,03,03,00,35,2.60
2019,03,03,00,36,2.60
2019,03,03,00,37,2.60
2019,03,03,00,38,2.60
2019,03,03,00,39,2.60
2019,03,03,00,40,2.60
2019,03,03,00,41,2.50
2019,03,03,00,42,2.50
2019,03,03,00,43,2.50
2019,03,03,00,44,2.50
2019,03,03,00,45,2.50
2019,03,03,00,46,2.50
2019,03,03,00,47,2.50
2019,03,03,00,48,2.50
2019,03,03,00,49,2.40
2019,03,03,00,50,2.40
2019,03,03,00,51,2.40
2019,03,03,00,52,2.40
2019,03,03,00,53,2.40
2019,03,03,00,54,2.40
2019,03,03,00,55,2.40
2019,03,03,00,56,2.40
2019,03,03,00,57,2.40
2019,03,03,00,58,2.40
2019,03,03,00,59,2.40
2019,03,03,01,00,2.40
2019,03,03,01,01,2.40
2019,03,03,01,02,2.30
2019,03,03,01,03,2.30
2019,03,03,01,04,2.30
2019,03,03,01,05,2.30
2019,03,03,01,06,2.30
2019,03,03,01,07,2.30
2019,03,03,01,08,2.30
2019,03,03,01,09,2.30
2019,03,03,01,10,2.30
2019,03,03,01,11,2.30
2019,03,03,01,12,2.30
2019,03,03,01,13,2.30
2019,03,03,01,14,2.30
2019,03,03,01,15,2.30
2019,03,03,01,16,2.30
2019,03,03,01,17,2.30
2019,03,03,01,18,2.30
2019,03,03,01,19,2.30
2019,03,03,01,20,2.30
2019,03,03,01,21,2.30
2019,03,03,01,22,2.30
2019,03,03,01,23,2.30
2019,03,03,01,24,2.30
2019,03,03,01,25,2.30
2019,03,03,01,26,2.30
2019,03,03,01,27,2.30
2019,03,03,01,28,2.30
2019,03,03,01,29,2.30
2019,03,03,01,30,2.30
2019,03,03,01,31,2.30
2019,03,03,01,32,2.30
2019,03,03,01,33,2.30
2019,03,03,01,34,2.30
2019,03,03,01,35,2.30
2019,03,03,01,36,2.30
2019,03,03,01,37,2.30
2019,03,03,01,38,2.30
2019,03,03,01,39,2.30
2019,03,03,01,40,2.30
2019,03,03,01,41,2.20
2019,03,03,01,42,2.20
2019,03,03,01,43,2.30
2019,03,03,01,44,2.30
2019,03,03,01,45,2.30
2019,03,03,01,46,2.30
2019,03,03,01,47,2.30
2019,03,03,01,48,2.30
2019,03,03,01,49,2.30
2019,03,03,01,50,2.30
2019,03,03,01,51,2.30
2019,03,03,01,52,2.20
2019,03,03,01,53,2.20
2019,03,03,01,54,2.20
2019,03,03,01,55,2.20
2019,03,03,01,56,2.20
2019,03,03,01,57,2.20
2019,03,03,01,58,2.20
2019,03,03,01,59,2.20
2019,03,03,02,00,2.20
2019,03,03,02,01,2.20
2019,03,03,02,02,2.20
2019,03,03,02,03,2.10
2019,03,03,02,04,2.10
2019,03,03,02,05,2.10
2019,03,03,02,06,2.20
2019,03,03,02,07,2.10
2019,03,03,02,08,2.10
2019,03,03,02,09,2.10
2019,03,03,02,10,2.10
2019,03,03,02,11,2.20
2019,03,03,02,12,2.20
2019,03,03,02,13,2.20
2019,03,03,02,14,2.20
2019,03,03,02,15,2.20
2019,03,03,02,16,2.20
2019,03,03,02,17,2.20
2019,03,03,02,18,2.20
2019,03,03,02,19,2.20
2019,03,03,02,20,2.10
2019,03,03,02,21,2.10
2019,03,03,02,22,2.10
2019,03,03,02,23,2.10
2019,03,03,02,24,2.10
2019,03,03,02,25,2.10
2019,03,03,02,26,2.10
2019,03,03,02,27,2.10
2019,03,03,02,28,2.10
2019,03,03,02,29,2.10
2019,03,03,02,30,2.10
2019,03,03,02,31,2.10
2019,03,03,02,32,2.10
2019,03,03,02,33,2.10
2019,03,03,02,34,2.10
2019,03,03,02,35,2.10
2019,03,03,02,36,2.10
2019,03,03,02,37,2.10
2019,03,03,02,38,2.10
2019,03,03,02,39,2.10
2019,03,03,02,40,2.10
2019,03,03,02,41,2.10
2019,03,03,02,42,2.10
2019,03,03,02,43,2.10
2019,03,03,02,44,2.10
2019,03,03,02,45,2.10
2019,03,03,02,46,2.10
2019,03,03,02,47,2.10
2019,03,03,02,48,2.10
2019,03,03,02,49,2.10
2019,03,03,02,50,2.10
2019,03,03,02,51,2.10
2019,03,03,02,52,2.10
2019,03,03,02,53,2.10
2019,03,03,02,54,2.10
2019,03,03,02,55,2.10
2019,03,03,02,56,2.10
2019,03,03,02,57,2.10
2019,03,03,02,58,2.10
2019,03,03,02,59,2.10
2019,03,03,03,00,2.00
2019,03,03,03,01,2.10
2019,03,03,03,02,2.10
2019,03,03,03,03,2.10
2019,03,03,03,04,2.10
2019,03,03,03,05,2.10
2019,03,03,03,06,2.10
2019,03,03,03,07,2.10
2019,03,03,03,08,2.10
2019,03,03,03,09,2.10
2019,03,03,03,10,2.10
2019,03,03,03,11,2.10
2019,03,03,03,12,2.10
2019,03,03,03,13,2.10
2019,03,03,03,14,2.10
2019,03,03,03,15,2.10
2019,03,03,03,16,2.10
2019,03,03,03,17,2.10
2019,03,03,03,18,2.10
2019,03,03,03,19,2.10
2019,03,03,03,20,2.10
2019,03,03,03,21,2.10
2019,03,03,03,22,2.00
2019,03,03,03,23,2.00
2019,03,03,03,24,2.00
2019,03,03,03,25,2.00
2019,03,03,03,26,2.00
2019,03,03,03,27,2.00
2019,03,03,03,28,2.00
2019,03,03,03,29,2.00
2019,03,03,03,30,1.90
2019,03,03,03,31,1.90
2019,03,03,03,32,1.90
2019,03,03,03,33,1.90
2019,03,03,03,34,1.90
2019,03,03,03,35,1.90
2019,03,03,03,36,1.90
2019,03,03,03,37,1.90
2019,03,03,03,38,1.90
2019,03,03,03,39,1.90
2019,03,03,03,40,1.90
2019,03,03,03,41,1.90
2019,03,03,03,42,1.90
2019,03,03,03,43,1.90
2019,03,03,03,44,1.90
2019,03,03,03,45,1.90
2019,03,03,03,46,1.80
2019,03,03,03,47,1.80
2019,03,03,03,48,1.80
2019,03,03,03,49,1.80
2019,03,03,03,50,1.80
2019,03,03,03,51,1.80
2019,03,03,03,52,1.80
2019,03,03,03,53,1.80
2019,03,03,03,54,1.80
2019,03,03,03,55,1.80
2019,03,03,03,56,1.80
2019,03,03,03,57,1.80
2019,03,03,03,58,1.80
2019,03,03,03,59,1.80
2019,03,03,04,00,1.80
2019,03,03,04,01,1.80
2019,03,03,04,02,1.80
2019,03,03,04,03,1.80
2019,03,03,04,04,1.80
2019,03,03,04,05,1.80
2019,03,03,04,06,1.80
2019,03,03,04,07,1.80
2019,03,03,04,08,1.80
2019,03,03,04,09,1.70
2019,03,03,04,10,1.70
2019,03,03,04,11,1.70
2019,03,03,04,12,1.70
2019,03,03,04,13,1.70
2019,03,03,04,14,1.70
2019,03,03,04,15,1.70
2019,03,03,04,16,1.70
2019,03,03,04,17,1.70
2019,03,03,04,18,1.70
2019,03,03,04,19,1.70
2019,03,03,04,20,1.70
2019,03,03,04,21,1.70
2019,03,03,04,22,1.70
2019,03,03,04,23,1.70
2019,03,03,04,24,1.70
2019,03,03,04,25,1.60
2019,03,03,04,26,1.60
2019,03,03,04,27,1.60
2019,03,03,04,28,1.60
2019,03,03,04,29,1.60
2019,03,03,04,30,1.60
2019,03,03,04,31,1.60
2019,03,03,04,32,1.60
2019,03,03,04,33,1.60
2019,03,03,04,34,1.60
2019,03,03,04,35,1.60
2019,03,03,04,36,1.60
2019,03,03,04,37,1.60
2019,03,03,04,38,1.60
2019,03,03,04,39,1.60
2019,03,03,04,40,1.60
2019,03,03,04,41,1.60
2019,03,03,04,42,1.60
2019,03,03,04,43,1.60
2019,03,03,04,44,1.60
2019,03,03,04,45,1.60
2019,03,03,04,46,1.60
2019,03,03,04,47,1.60
2019,03,03,04,48,1.60
2019,03,03,04,49,1.60
2019,03,03,04,50,1.60
2019,03,03,04,51,1.60
2019,03,03,04,52,1.60
2019,03,03,04,53,1.60
2019,03,03,04,54,1.60
2019,03,03,04,55,1.60
2019,03,03,04,56,1.60
2019,03,03,04,57,1.60
2019,03,03,04,58,1.60
2019,03,03,04,59,1.60
2019,03,03,05,00,1.60
2019,03,03,05,01,1.60
2019,03,03,05,02,1.60
2019,03,03,05,03,1.60
2019,03,03,05,04,1.60
2019,03,03,05,05,1.50
2019,03,03,05,06,1.50
2019,03,03,05,07,1.50
2019,03,03,05,08,1.50
2019,03,03,05,09,1.50
2019,03,03,05,10,1.50
2019,03,03,05,11,1.50
2019,03,03,05,12,1.50
2019,03,03,05,13,1.50
2019,03,03,05,14,1.50
2019,03,03,05,15,1.50
2019,03,03,05,16,1.50
2019,03,03,05,17,1.50
2019,03,03,05,18,1.50
2019,03,03,05,19,1.50
2019,03,03,05,20,1.50
2019,03,03,05,21,1.50
2019,03,03,05,22,1.50
2019,03,03,05,23,1.50
2019,03,03,05,24,1.50
2019,03,03,05,25,1.50
2019,03,03,05,26,1.40
2019,03,03,05,27,1.40
2019,03,03,05,28,1.40
2019,03,03,05,29,1.40
2019,03,03,05,30,1.40
2019,03,03,05,31,1.40
2019,03,03,05,32,1.40
2019,03,03,05,33,1.40
2019,03,03,05,34,1.40
2019,03,03,05,35,1.40
2019,03,03,05,36,1.40
2019,03,03,05,37,1.40
2019,03,03,05,38,1.40
2019,03,03,05,39,1.40
2019,03,03,05,40,1.40
2019,03,03,05,41,1.40
2019,03,03,05,42,1.40
2019,03,03,05,43,1.40
2019,03,03,05,44,1.40
2019,03,03,05,45,1.40
2019,03,03,05,46,1.40
2019,03,03,05,47,1.40
2019,03,03,05,48,1.40
2019,03,03,05,49,1.40
2019,03,03,05,50,1.40
2019,03,03,05,51,1.40
2019,03,03,05,52,1.40
2019,03,03,05,53,1.40
2019,03,03,05,54,1.40
2019,03,03,05,55,1.40
2019,03,03,05,56,1.40
2019,03,03,05,57,1.30
2019,03,03,05,58,1.30
2019,03,03,05,59,1.30
2019,03,03,06,00,1.30
2019,03,03,06,01,1.30
2019,03,03,06,02,1.30
2019,03,03,06,03,1.30
2019,03,03,06,04,1.40
2019,03,03,06,05,1.40
2019,03,03,06,06,1.40
2019,03,03,06,07,1.40
2019,03,03,06,08,1.40
2019,03,03,06,09,1.40
2019,03,03,06,10,1.40
2019,03,03,06,11,1.40
2019,03,03,06,12,1.40
2019,03,03,06,13,1.40
2019,03,03,06,14,1.40
2019,03,03,06,15,1.30
2019,03,03,06,16,1.40
2019,03,03,06,17,1.30
2019,03,03,06,18,1.30
2019,03,03,06,19,1.40
2019,03,03,06,20,1.30
2019,03,03,06,21,1.30
2019,03,03,06,22,1.30
2019,03,03,06,23,1.30
2019,03,03,06,24,1.30
2019,03,03,06,25,1.30
2019,03,03,06,26,1.30
2019,03,03,06,27,1.30
2019,03,03,06,28,1.30
2019,03,03,06,29,1.30
2019,03,03,06,30,1.30
2019,03,03,06,31,1.30
2019,03,03,06,32,1.30
2019,03,03,06,33,1.30
2019,03,03,06,34,1.30
2019,03,03,06,35,1.30
2019,03,03,06,36,1.30
2019,03,03,06,37,1.30
2019,03,03,06,38,1.30
2019,03,03,06,39,1.40
2019,03,03,06,40,1.40
2019,03,03,06,41,1.40
2019,03,03,06,42,1.40
2019,03,03,06,43,1.40
2019,03,03,06,44,1.40
2019,03,03,06,45,1.40
2019,03,03,06,46,1.40
2019,03,03,06,47,1.40
2019,03,03,06,48,1.40
2019,03,03,06,49,1.40
2019,03,03,06,50,1.40
2019,03,03,06,51,1.40
2019,03,03,06,52,1.40
2019,03,03,06,53,1.40
2019,03,03,06,54,1.40
2019,03,03,06,55,1.40
2019,03,03,06,56,1.40
2019,03,03,06,57,1.40
2019,03,03,06,58,1.40
2019,03,03,06,59,1.40
2019,03,03,07,00,1.40
2019,03,03,07,01,1.40
2019,03,03,07,02,1.40
2019,03,03,07,03,1.40
2019,03,03,07,04,1.40
2019,03,03,07,05,1.40
2019,03,03,07,06,1.40
2019,03,03,07,07,1.40
2019,03,03,07,08,1.40
2019,03,03,07,09,1.40
2019,03,03,07,10,1.40
2019,03,03,07,11,1.40
2019,03,03,07,12,1.40
2019,03,03,07,13,1.40
2019,03,03,07,14,1.40
2019,03,03,07,15,1.40
2019,03,03,07,16,1.40
2019,03,03,07,17,1.40
2019,03,03,07,18,1.40
2019,03,03,07,19,1.50
2019,03,03,07,20,1.50
2019,03,03,07,21,1.50
2019,03,03,07,22,1.50
2019,03,03,07,23,1.50
2019,03,03,07,24,1.50
2019,03,03,07,25,1.60
2019,03,03,07,26,1.60
2019,03,03,07,27,1.60
2019,03,03,07,28,1.60
2019,03,03,07,29,1.60
2019,03,03,07,30,1.60
2019,03,03,07,31,1.60
2019,03,03,07,32,1.60
2019,03,03,07,33,1.60
2019,03,03,07,34,1.60
2019,03,03,07,35,1.60
2019,03,03,07,36,1.60
2019,03,03,07,37,1.70
2019,03,03,07,38,1.70
2019,03,03,07,39,1.70
2019,03,03,07,40,1.70
2019,03,03,07,41,1.70
2019,03,03,07,42,1.80
2019,03,03,07,43,1.80
2019,03,03,07,44,1.80
2019,03,03,07,45,1.80
2019,03,03,07,46,1.90
2019,03,03,07,47,1.90
2019,03,03,07,48,2.00
2019,03,03,07,49,2.00
2019,03,03,07,50,2.00
2019,03,03,07,51,2.10
2019,03,03,07,52,2.10
2019,03,03,07,53,2.10
2019,03,03,07,54,2.10
2019,03,03,07,55,2.20
2019,03,03,07,56,2.20
2019,03,03,07,57,2.20
2019,03,03,07,58,2.30
2019,03,03,07,59,2.30
2019,03,03,08,00,2.30
2019,03,03,08,01,2.40
2019,03,03,08,02,2.40
2019,03,03,08,03,2.40
2019,03,03,08,04,2.50
2019,03,03,08,05,2.50
2019,03,03,08,06,2.60
2019,03,03,08,07,2.60
2019,03,03,08,08,2.60
2019,03,03,08,09,2.60
2019,03,03,08,10,2.60
2019,03,03,08,11,2.60
2019,03,03,08,12,2.60
2019,03,03,08,13,2.70
2019,03,03,08,14,2.70
2019,03,03,08,15,2.70
2019,03,03,08,16,2.70
2019,03,03,08,17,2.80
2019,03,03,08,18,2.80
2019,03,03,08,19,2.80
2019,03,03,08,20,2.80
2019,03,03,08,21,2.80
2019,03,03,08,22,2.80
2019,03,03,08,23,2.80
2019,03,03,08,24,2.90
2019,03,03,08,25,2.90
2019,03,03,08,26,2.90
2019,03,03,08,27,3.00
2019,03,03,08,28,3.00
2019,03,03,08,29,3.00
2019,03,03,08,30,3.00
2019,03,03,08,31,3.10
2019,03,03,08,32,3.10
2019,03,03,08,33,3.20
2019,03,03,08,34,3.20
2019,03,03,08,35,3.20
2019,03,03,08,36,3.30
2019,03,03,08,37,3.30
2019,03,03,08,38,3.30
2019,03,03,08,39,3.30
2019,03,03,08,40,3.40
2019,03,03,08,41,3.40
2019,03,03,08,42,3.40
2019,03,03,08,43,3.50
2019,03,03,08,44,3.50
2019,03,03,08,45,3.50
2019,03,03,08,46,3.60
2019,03,03,08,47,3.60
2019,03,03,08,48,3.60
2019,03,03,08,49,3.60
2019,03,03,08,50,3.60
2019,03,03,08,51,3.60
2019,03,03,08,52,3.60
2019,03,03,08,53,3.60
2019,03,03,08,54,3.60
2019,03,03,08,55,3.60
2019,03,03,08,56,3.70
2019,03,03,08,57,3.70
2019,03,03,08,58,3.70
2019,03,03,08,59,3.80
2019,03,03,09,00,3.80
2019,03,03,09,01,3.80
2019,03,03,09,02,3.90
2019,03,03,09,03,3.90
2019,03,03,09,04,4.00
2019,03,03,09,05,4.00
2019,03,03,09,06,3.90
2019,03,03,09,07,3.90
2019,03,03,09,08,3.90
2019,03,03,09,09,3.90
2019,03,03,09,10,3.90
2019,03,03,09,11,4.00
2019,03,03,09,12,4.00
2019,03,03,09,13,4.10
2019,03,03,09,14,4.10
2019,03,03,09,15,4.20
2019,03,03,09,16,4.20
2019,03,03,09,17,4.20
2019,03,03,09,18,4.20
2019,03,03,09,19,4.30
2019,03,03,09,20,4.30
2019,03,03,09,21,4.30
2019,03,03,09,22,4.30
2019,03,03,09,23,4.30
2019,03,03,09,24,4.30
2019,03,03,09,25,4.30
2019,03,03,09,26,4.30
2019,03,03,09,27,4.30
2019,03,03,09,28,4.30
2019,03,03,09,29,4.30
2019,03,03,09,30,4.30
2019,03,03,09,31,4.30
2019,03,03,09,32,4.40
2019,03,03,09,33,4.40
2019,03,03,09,34,4.40
2019,03,03,09,35,4.50
2019,03,03,09,36,4.50
2019,03,03,09,37,4.60
2019,03,03,09,38,4.60
2019,03,03,09,39,4.70
2019,03,03,09,40,4.70
2019,03,03,09,41,4.70
2019,03,03,09,42,4.70
2019,03,03,09,43,4.70
2019,03,03,09,44,4.70
2019,03,03,09,45,4.70
2019,03,03,09,46,4.70
2019,03,03,09,47,4.70
2019,03,03,09,48,4.70
2019,03,03,09,49,4.70
2019,03,03,09,50,4.60
2019,03,03,09,51,4.60
2019,03,03,09,52,4.60
2019,03,03,09,53,4.60
2019,03,03,09,54,4.60
2019,03,03,09,55,4.60
2019,03,03,09,56,4.60
2019,03,03,09,57,4.70
2019,03,03,09,58,4.70
2019,03,03,09,59,4.70
2019,03,03,10,00,4.70
2019,03,03,10,01,4.70
2019,03,03,10,02,4.60
2019,03,03,10,03,4.60
2019,03,03,10,04,4.60
2019,03,03,10,05,4.60
2019,03,03,10,06,4.50
2019,03,03,10,07,4.40
2019,03,03,10,08,4.40
2019,03,03,10,09,4.40
2019,03,03,10,10,4.50
2019,03,03,10,11,4.50
2019,03,03,10,12,4.60
2019,03,03,10,13,4.50
2019,03,03,10,14,4.50
2019,03,03,10,15,4.50
2019,03,03,10,16,4.50
2019,03,03,10,17,4.50
2019,03,03,10,18,4.50
2019,03,03,10,19,4.50
2019,03,03,10,20,4.60
2019,03,03,10,21,4.60
2019,03,03,10,22,4.70
2019,03,03,10,23,4.70
2019,03,03,10,24,4.80
2019,03,03,10,25,4.80
2019,03,03,10,26,4.80
2019,03,03,10,27,4.80
2019,03,03,10,28,4.80
2019,03,03,10,29,4.90
2019,03,03,10,30,4.90
2019,03,03,10,31,4.80
2019,03,03,10,32,4.80
2019,03,03,10,33,4.80
2019,03,03,10,34,4.90
2019,03,03,10,35,4.90
2019,03,03,10,36,4.90
2019,03,03,10,37,4.90
2019,03,03,10,38,4.90
2019,03,03,10,39,4.80
2019,03,03,10,40,4.80
2019,03,03,10,41,4.80
2019,03,03,10,42,4.80
2019,03,03,10,43,4.80
2019,03,03,10,44,4.70
2019,03,03,10,45,4.70
2019,03,03,10,46,4.60
2019,03,03,10,47,4.60
2019,03,03,10,48,4.50
2019,03,03,10,49,4.50
2019,03,03,10,50,4.50
2019,03,03,10,51,4.60
2019,03,03,10,52,4.70
2019,03,03,10,53,4.80
2019,03,03,10,54,4.80
2019,03,03,10,55,4.90
2019,03,03,10,56,4.90
2019,03,03,10,57,4.90
2019,03,03,10,58,4.90
2019,03,03,10,59,4.80
2019,03,03,11,00,4.80
2019,03,03,11,01,4.80
2019,03,03,11,02,4.80
2019,03,03,11,03,4.80
2019,03,03,11,04,4.90
2019,03,03,11,05,5.00
2019,03,03,11,06,5.00
2019,03,03,11,07,5.10
2019,03,03,11,08,5.10
2019,03,03,11,09,5.10
2019,03,03,11,10,5.10
2019,03,03,11,11,5.10
2019,03,03,11,12,5.20
2019,03,03,11,13,5.20
2019,03,03,11,14,5.20
2019,03,03,11,15,5.20
2019,03,03,11,16,5.10
2019,03,03,11,17,5.10
2019,03,03,11,18,5.10
2019,03,03,11,19,5.10
2019,03,03,11,20,5.10
2019,03,03,11,21,5.20
2019,03,03,11,22,5.20
2019,03,03,11,23,5.10
2019,03,03,11,24,5.10
2019,03,03,11,25,5.20
2019,03,03,11,26,5.20
2019,03,03,11,27,5.20
2019,03,03,11,28,5.30
2019,03,03,11,29,5.30
2019,03,03,11,30,5.30
2019,03,03,11,31,5.30
2019,03,03,11,32,5.20
2019,03,03,11,33,5.20
2019,03,03,11,34,5.20
2019,03,03,11,35,5.20
2019,03,03,11,36,5.20
2019,03,03,11,37,5.20
2019,03,03,11,38,5.20
2019,03,03,11,39,5.20
2019,03,03,11,40,5.30
2019,03,03,11,41,5.40
2019,03,03,11,42,5.40
2019,03,03,11,43,5.50
2019,03,03,11,44,5.50
2019,03,03,11,45,5.50
2019,03,03,11,46,5.50
2019,03,03,11,47,5.40
2019,03,03,11,48,5.40
2019,03,03,11,49,5.40
2019,03,03,11,50,5.50
2019,03,03,11,51,5.50
2019,03,03,11,52,5.60
2019,03,03,11,53,5.60
2019,03,03,11,54,5.70
2019,03,03,11,55,5.70
2019,03,03,11,56,5.80
2019,03,03,11,57,5.80
2019,03,03,11,58,5.80
2019,03,03,11,59,5.80
2019,03,03,12,00,5.70
2019,03,03,12,01,5.70
2019,03,03,12,02,5.80
2019,03,03,12,03,5.80
2019,03,03,12,04,5.80
2019,03,03,12,05,5.80
2019,03,03,12,06,5.80
2019,03,03,12,07,5.80
2019,03,03,12,08,5.70
2019,03,03,12,09,5.70
2019,03,03,12,10,5.70
2019,03,03,12,11,5.70
2019,03,03,12,12,5.60
2019,03,03,12,13,5.60
2019,03,03,12,14,5.60
2019,03,03,12,15,5.70
2019,03,03,12,16,5.70
2019,03,03,12,17,5.70
2019,03,03,12,18,5.60
2019,03,03,12,19,5.60
2019,03,03,12,20,5.50
2019,03,03,12,21,5.40
2019,03,03,12,22,5.40
2019,03,03,12,23,5.40
2019,03,03,12,24,5.40
2019,03,03,12,25,5.40
2019,03,03,12,26,5.40
2019,03,03,12,27,5.40
2019,03,03,12,28,5.40
2019,03,03,12,29,5.40
2019,03,03,12,30,5.40
2019,03,03,12,31,5.40
2019,03,03,12,32,5.40
2019,03,03,12,33,5.40
2019,03,03,12,34,5.40
2019,03,03,12,35,5.50
2019,03,03,12,36,5.60
2019,03,03,12,37,5.60
2019,03,03,12,38,5.60
2019,03,03,12,39,5.60
2019,03,03,12,40,5.70
2019,03,03,12,41,5.70
2019,03,03,12,42,5.80
2019,03,03,12,43,5.80
2019,03,03,12,44,5.80
2019,03,03,12,45,5.90
2019,03,03,12,46,6.00
2019,03,03,12,47,6.00
2019,03,03,12,48,6.00
2019,03,03,12,49,5.90
2019,03,03,12,50,5.90
2019,03,03,12,51,5.90
2019,03,03,12,52,5.90
2019,03,03,12,53,6.00
2019,03,03,12,54,6.00
2019,03,03,12,55,6.10
2019,03,03,12,56,6.10
2019,03,03,12,57,6.10
2019,03,03,12,58,6.20
2019,03,03,12,59,6.10
2019,03,03,13,00,6.00
2019,03,03,13,01,5.90
2019,03,03,13,02,5.80
2019,03,03,13,03,5.80
2019,03,03,13,04,5.70
2019,03,03,13,05,5.70
2019,03,03,13,06,5.70
2019,03,03,13,07,5.70
2019,03,03,13,08,5.80
2019,03,03,13,09,5.80
2019,03,03,13,10,5.90
2019,03,03,13,11,6.10
2019,03,03,13,12,6.20
2019,03,03,13,13,6.30
2019,03,03,13,14,6.40
2019,03,03,13,15,6.50
2019,03,03,13,16,6.50
2019,03,03,13,17,6.60
2019,03,03,13,18,6.60
2019,03,03,13,19,6.50
2019,03,03,13,20,6.30
2019,03,03,13,21,6.20
2019,03,03,13,22,6.10
2019,03,03,13,23,6.10
2019,03,03,13,24,6.00
2019,03,03,13,25,5.90
2019,03,03,13,26,5.90
2019,03,03,13,27,5.80
2019,03,03,13,28,5.80
2019,03,03,13,29,5.80
2019,03,03,13,30,5.80
2019,03,03,13,31,5.80
2019,03,03,13,32,5.80
2019,03,03,13,33,5.90
2019,03,03,13,34,5.90
2019,03,03,13,35,6.00
2019,03,03,13,36,6.00
2019,03,03,13,37,6.10
2019,03,03,13,38,6.10
2019,03,03,13,39,6.10
2019,03,03,13,40,6.10
2019,03,03,13,41,6.10
2019,03,03,13,42,6.00
2019,03,03,13,43,6.00
2019,03,03,13,44,5.90
2019,03,03,13,45,6.00
2019,03,03,13,46,6.00
2019,03,03,13,47,6.10
2019,03,03,13,48,6.20
2019,03,03,13,49,6.30
2019,03,03,13,50,6.30
2019,03,03,13,51,6.40
2019,03,03,13,52,6.40
2019,03,03,13,53,6.50
2019,03,03,13,54,6.50
2019,03,03,13,55,6.50
2019,03,03,13,56,6.40
2019,03,03,13,57,6.30
2019,03,03,13,58,6.30
2019,03,03,13,59,6.20
2019,03,03,14,00,6.20
2019,03,03,14,01,6.10
2019,03,03,14,02,6.10
2019,03,03,14,03,6.00
2019,03,03,14,04,6.10
2019,03,03,14,05,6.10
2019,03,03,14,06,6.10
2019,03,03,14,07,6.10
2019,03,03,14,08,6.20
2019,03,03,14,09,6.20
2019,03,03,14,10,6.30
2019,03,03,14,11,6.30
2019,03,03,14,12,6.30
2019,03,03,14,13,6.30
2019,03,03,14,14,6.30
2019,03,03,14,15,6.30
2019,03,03,14,16,6.30
2019,03,03,14,17,6.30
2019,03,03,14,18,6.30
2019,03,03,14,19,6.30
2019,03,03,14,20,6.30
2019,03,03,14,21,6.30
2019,03,03,14,22,6.30
2019,03,03,14,23,6.40
2019,03,03,14,24,6.40
2019,03,03,14,25,6.30
2019,03,03,14,26,6.30
2019,03,03,14,27,6.20
2019,03,03,14,28,6.20
2019,03,03,14,29,6.10
2019,03,03,14,30,6.00
2019,03,03,14,31,6.00
2019,03,03,14,32,5.90
2019,03,03,14,33,5.90
2019,03,03,14,34,6.00
2019,03,03,14,35,6.10
2019,03,03,14,36,6.10
2019,03,03,14,37,6.20
2019,03,03,14,38,6.20
2019,03,03,14,39,6.20
2019,03,03,14,40,6.20
2019,03,03,14,41,6.20
2019,03,03,14,42,6.20
2019,03,03,14,43,6.30
2019,03,03,14,44,6.30
2019,03,03,14,45,6.40
2019,03,03,14,46,6.50
2019,03,03,14,47,6.50
2019,03,03,14,48,6.50
2019,03,03,14,49,6.60
2019,03,03,14,50,6.60
2019,03,03,14,51,6.60
2019,03,03,14,52,6.60
2019,03,03,14,53,6.60
2019,03,03,14,54,6.60
2019,03,03,14,55,6.60
2019,03,03,14,56,6.60
2019,03,03,14,57,6.60
2019,03,03,14,58,6.60
2019,03,03,14,59,6.60
2019,03,03,15,00,6.60
2019,03,03,15,01,6.60
2019,03,03,15,02,6.50
2019,03,03,15,03,6.50
2019,03,03,15,04,6.50
2019,03,03,15,05,6.50
2019,03,03,15,06,6.50
2019,03,03,15,07,6.60
2019,03,03,15,08,6.60
2019,03,03,15,09,6.60
2019,03,03,15,10,6.60
2019,03,03,15,11,6.70
2019,03,03,15,12,6.60
2019,03,03,15,13,6.70
2019,03,03,15,14,6.70
2019,03,03,15,15,6.70
2019,03,03,15,16,6.70
2019,03,03,15,17,6.70
2019,03,03,15,18,6.70
2019,03,03,15,19,6.70
2019,03,03,15,20,6.70
2019,03,03,15,21,6.60
2019,03,03,15,22,6.60
2019,03,03,15,23,6.50
2019,03,03,15,24,6.50
2019,03,03,15,25,6.50
2019,03,03,15,26,6.50
2019,03,03,15,27,6.50
2019,03,03,15,28,6.50
2019,03,03,15,29,6.50
2019,03,03,15,30,6.50
2019,03,03,15,31,6.50
2019,03,03,15,32,6.40
2019,03,03,15,33,6.30
2019,03,03,15,34,6.30
2019,03,03,15,35,6.30
2019,03,03,15,36,6.30
2019,03,03,15,37,6.30
2019,03,03,15,38,6.30
2019,03,03,15,39,6.40
2019,03,03,15,40,6.40
2019,03,03,15,41,6.30
2019,03,03,15,42,6.30
2019,03,03,15,43,6.30
2019,03,03,15,44,6.30
2019,03,03,15,45,6.40
2019,03,03,15,46,6.40
2019,03,03,15,47,6.30
2019,03,03,15,48,6.30
2019,03,03,15,49,6.30
2019,03,03,15,50,6.20
2019,03,03,15,51,6.20
2019,03,03,15,52,6.20
2019,03,03,15,53,6.20
2019,03,03,15,54,6.20
2019,03,03,15,55,6.20
2019,03,03,15,56,6.30
2019,03,03,15,57,6.30
2019,03,03,15,58,6.30
2019,03,03,15,59,6.30
2019,03,03,16,00,6.30
2019,03,03,16,01,6.30
2019,03,03,16,02,6.30
2019,03,03,16,03,6.30
2019,03,03,16,04,6.40
2019,03,03,16,05,6.40
2019,03,03,16,06,6.40
2019,03,03,16,07,6.40
2019,03,03,16,08,6.40
2019,03,03,16,09,6.40
2019,03,03,16,10,6.30
2019,03,03,16,11,6.30
2019,03,03,16,12,6.30
2019,03,03,16,13,6.20
2019,03,03,16,14,6.20
2019,03,03,16,15,6.10
2019,03,03,16,16,6.10
2019,03,03,16,17,6.00
2019,03,03,16,18,6.00
2019,03,03,16,19,6.00
2019,03,03,16,20,6.00
2019,03,03,16,21,6.00
2019,03,03,16,22,5.90
2019,03,03,16,23,5.90
2019,03,03,16,24,5.90
2019,03,03,16,25,5.80
2019,03,03,16,26,5.80
2019,03,03,16,27,5.70
2019,03,03,16,28,5.70
2019,03,03,16,29,5.70
2019,03,03,16,30,5.70
2019,03,03,16,31,5.70
2019,03,03,16,32,5.70
2019,03,03,16,33,5.70
2019,03,03,16,34,5.70
2019,03,03,16,35,5.70
2019,03,03,16,36,5.60
2019,03,03,16,37,5.60
2019,03,03,16,38,5.60
2019,03,03,16,39,5.60
2019,03,03,16,40,5.60
2019,03,03,16,41,5.60
2019,03,03,16,42,5.60
2019,03,03,16,43,5.60
2019,03,03,16,44,5.60
2019,03,03,16,45,5.60
2019,03,03,16,46,5.60
2019,03,03,16,47,5.60
2019,03,03,16,48,5.60
2019,03,03,16,49,5.60
2019,03,03,16,50,5.60
2019,03,03,16,51,5.50
2019,03,03,16,52,5.50
2019,03,03,16,53,5.40
2019,03,03,16,54,5.40
2019,03,03,16,55,5.30
2019,03,03,16,56,5.30
2019,03,03,16,57,5.30
2019,03,03,16,58,5.30
2019,03,03,16,59,5.30
2019,03,03,17,00,5.20
2019,03,03,17,01,5.20
2019,03,03,17,02,5.20
2019,03,03,17,03,5.20
2019,03,03,17,04,5.20
2019,03,03,17,05,5.20
2019,03,03,17,06,5.20
2019,03,03,17,07,5.20
2019,03,03,17,08,5.20
2019,03,03,17,09,5.20
2019,03,03,17,10,5.10
2019,03,03,17,11,5.10
2019,03,03,17,12,5.10
2019,03,03,17,13,5.10
2019,03,03,17,14,5.10
2019,03,03,17,15,5.10
2019,03,03,17,16,5.00
2019,03,03,17,17,5.00
2019,03,03,17,18,5.00
2019,03,03,17,19,5.00
2019,03,03,17,20,5.00
2019,03,03,17,21,4.90
2019,03,03,17,22,5.00
2019,03,03,17,23,4.90
2019,03,03,17,24,5.00
2019,03,03,17,25,5.00
2019,03,03,17,26,4.90
2019,03,03,17,27,4.90
2019,03,03,17,28,4.90
2019,03,03,17,29,4.90
2019,03,03,17,30,4.90
2019,03,03,17,31,4.90
2019,03,03,17,32,4.90
2019,03,03,17,33,4.90
2019,03,03,17,34,4.80
2019,03,03,17,35,4.80
2019,03,03,17,36,4.80
2019,03,03,17,37,4.80
2019,03,03,17,38,4.80
2019,03,03,17,39,4.80
2019,03,03,17,40,4.80
2019,03,03,17,41,4.80
2019,03,03,17,42,4.80
2019,03,03,17,43,4.80
2019,03,03,17,44,4.70
2019,03,03,17,45,4.70
2019,03,03,17,46,4.70
2019,03,03,17,47,4.70
2019,03,03,17,48,4.70
2019,03,03,17,49,4.70
2019,03,03,17,50,4.70
2019,03,03,17,51,4.70
2019,03,03,17,52,4.70
2019,03,03,17,53,4.60
2019,03,03,17,54,4.60
2019,03,03,17,55,4.60
2019,03,03,17,56,4.60
2019,03,03,17,57,4.60
2019,03,03,17,58,4.60
2019,03,03,17,59,4.60
2019,03,03,18,00,4.60
2019,03,03,18,01,4.60
2019,03,03,18,02,4.60
2019,03,03,18,03,4.50
2019,03,03,18,04,4.50
2019,03,03,18,05,4.50
2019,03,03,18,06,4.40